Location: Carson
(33.8314°N, 118.2820°W)
Time: 14:04:38
(UTC+00:00)

Cosmos 2184 Rocket - Pass Details

Date: 23 November 2020
Orbit: 958 x 1003 km, 82.9° (Epoch: 21 January)

Event Time Altitude Azimuth Distance (km) Brightness Sun altitude
Rises 13:30:04 0° 177° (S) 3,655 7.3 -13.2°
Reaches altitude 10° 13:32:34 10° 174° (S) 2,718 6.6 -12.7°
Maximum altitude 13:38:44 68° 93° (E) 1,059 4.5 -11.4°
Drops below altitude 10° 13:45:01 10° 12° (NNE) 2,763 6.3 -10.2°
Sets 13:47:34 0° 10° (N) 3,721 7.0 -9.7°
